Flag for Germany Past Weather in Neumarkt in der Oberpfalz, Bavaria, Germany — Yesterday and Last 2 Weeks

39 °F

Mostly cloudy.

Feels Like: 39 °F
Forecast: 38 / 47 °F
Wind: 1 mph from Southeast

Location: Hohenfels

Current Time: Oct 21, 2016 at 8:23:25 PM

Latest Report: Oct 21, 2016 at 7:58 PM

Visibility: N/A

Pressure: 30.03 "Hg

Humidity: 100%

Dew Point: 39 °F

Location of Neumarkt in der OberpfalzLocation

Past Weather in Neumarkt in der Oberpfalz — Graph


Neumarkt in der Oberpfalz Temperature Yesterday

Maximum temperature yesterday: 50 °F (at 12:58 PM)
Minimum temperature yesterday: 39 °F (at 7:58 AM)
Average temperature yesterday: 44 °F

High & Low Weather Summary for the Past Weeks

High64 °F (Oct 15, 1:58 PM)100% (Oct 6, 7:58 PM)30.30 "Hg (Oct 6, 7:58 PM)
Low32 °F (Oct 10, 3:58 AM)54% (Oct 8, 1:58 PM)29.77 "Hg (Oct 14, 11:58 PM)
Average45 °F90%30.10 "Hg
* Reported Oct 6 7:58 PM — Oct 21 7:01 PM, Neumarkt in der Oberpfalz, Weather by CustomWeather, © 2016

Note: Actual official high and low records may vary slightly from our data, if they occured in-between our weather recording intervals... More about our weather records


Neumarkt in der Oberpfalz Weather History for the Previous 24 Hours

Scroll right to see more
Time TempWeatherWind HumidityBarometerVisibility
7:01 PM
Fri, Oct 21
37 °FFog.No wind100%29.97 "Hg1 mi
6:58 PM37 °FFog.No wind100%30.02 "Hg0 mi
5:58 PM41 °FMore clouds than sun.No wind93%30.01 "HgN/A
4:58 PM41 °FLight rain. Fog.2 mph93%30.01 "Hg4 mi
3:58 PM43 °FBroken clouds.No wind81%29.99 "HgN/A
2:58 PM46 °FMostly cloudy.5 mph71%29.97 "HgN/A
1:58 PM45 °FOvercast.5 mph76%29.98 "HgN/A
12:58 PM45 °FOvercast.3 mph76%29.98 "HgN/A
11:58 AM43 °FOvercast.6 mph87%29.99 "HgN/A
10:58 AM43 °FMore clouds than sun.5 mph87%29.98 "HgN/A
7:58 AM41 °FMostly cloudy.3 mph93%29.94 "HgN/A
6:58 AM41 °FOvercast.5 mph93%29.92 "HgN/A
6:04 AM43 °FOvercast.6 mph93%29.87 "HgN/A
5:58 AM43 °FMostly cloudy.7 mph93%29.91 "HgN/A
4:58 AM43 °FOvercast.3 mph100%29.89 "HgN/A
4:04 AM43 °FMostly cloudy.3 mph100%29.86 "HgN/A
3:58 AM43 °FLight rain. Mostly cloudy.3 mph100%29.89 "HgN/A
2:58 AM43 °FRain. Fog.5 mph100%29.90 "Hg6 mi
1:58 AM43 °FMostly cloudy.2 mph93%29.90 "HgN/A
12:58 AM43 °FOvercast.1 mph93%29.92 "HgN/A
11:58 PM
Thu, Oct 20
43 °FMostly cloudy.No wind93%29.92 "HgN/A
10:58 PM43 °FOvercast.1 mph100%29.93 "HgN/A
9:58 PM43 °FLight rain. Overcast.No wind100%29.93 "HgN/A
8:59 PM43 °FLight rain. Overcast.2 mph100%29.89 "HgN/A
Weather by CustomWeather, © 2016

See weather overviewHow to use our weather pages